#timestamp,LO_Frequency,Hit,StdDev 
1623747615.1,286047000.8,N
1623747616.0,286047000.8,N
1623747635.8,286047000.8,N
1623747655.7,286046998.3,N
1623747675.5,286046999.9,N
1623747695.4,286047000.7,N
1623747715.2,286046998.4,N
1623747735.0,286047000.8,N
1623747735.9,286047000.8,N
1623747755.8,286046998.2,N
1623747775.6,286046996.5,Y
1623747795.5,286046998.9,P
1623747815.3,286046998.3,P
1623747835.1,286047001.0,N
1623747855.9,286047000.8,N
1623747875.7,286047002.8,N
1623747895.6,286047000.4,N
1623747915.4,286047002.7,N
1623747935.2,286046999.8,N
1623747955.1,286047000.5,N
1623747956.0,286047000.5,N
1623747975.8,286047000.1,N
1623747995.6,286047002.6,N
1623748015.5,286047002.1,N
1623748035.3,286047001.8,N
1623748055.2,286047004.4,Y
1623748075.0,286047001.7,P
1623748075.9,286047001.7,P
1623748095.7,286047001.6,P
1623748115.6,286047001.8,Y
1623748135.4,286046999.9,P
1623748155.3,286046998.6,N
1623748175.1,286046999.2,N
1623748195.8,286046996.8,Y
1623748215.7,286046996.5,P
1623748235.5,286046996.9,N
1623748255.4,286046999.4,N
1623748275.2,286046998.8,N
1623748295.0,286046996.7,N
1623748295.9,286046996.7,N
1623748315.8,286046997.9,N
1623748335.6,286046995.9,Y
1623748355.5,286046996.8,P
1623748375.3,286046997.8,P
1623748395.1,286046997.8,P
1623748415.9,286046997.3,Y
1623748435.7,286047000.4,P
1623748455.5,286047001.1,N
1623748475.4,286046998.3,N
1623748495.2,286046998.8,N
1623748515.1,286047001.2,N
1623748516.0,286047001.2,N
1623748535.8,286046998.6,N
1623748555.6,286046999.9,N
1623748575.5,286047002.4,N
1623748595.3,286047000.4,N
1623748615.1,286046999.9,N
1623748635.9,286047000.4,N
1623748655.7,286047000.3,N
1623748675.6,286046998.2,N
1623748695.4,286047001.1,N
1623748715.2,286046998.4,N
1623748735.1,286046998.8,N
1623748736.0,286046998.8,N
1623748755.8,286046999.5,N
1623748775.6,286046996.9,N
1623748795.5,286046999.6,N
1623748815.3,286046997.2,N
1623748835.2,286046997.4,N
1623748855.9,286046997.0,N
1623748875.7,286046996.7,N
1623748895.6,286046997.0,N
1623748915.4,286046999.5,N
1623748935.3,286046997.6,N
1623748955.1,286046995.3,Y
1623748956.0,286046995.3,P
1623748975.8,286046998.0,N
1623748995.7,286046996.7,N
1623749015.5,286046996.7,N
1623749035.3,286046996.8,N
1623749055.2,286046997.9,N
1623749075.0,286046997.6,N
1623749075.9,286046997.6,N
1623749095.8,286046995.9,Y
1623749115.6,286046997.0,P
1623749135.4,286046996.8,P
1623749155.3,286046997.6,P
1623749175.1,286046997.5,Y
1623749195.8,286047000.0,P
1623749215.7,286046998.8,N
1623749235.5,286046999.4,N
1623749255.4,286046998.7,N
1623749275.2,286047001.1,N
1623749295.0,286047000.9,N
1623749295.9,286047000.9,N
1623749315.8,286047001.1,N
1623749335.6,286047000.2,N
1623749355.4,286047000.1,N
1623749375.3,286047000.0,N
1623749395.1,286046998.3,N
1623749415.9,286047002.7,N
1623749435.7,286047002.6,N
1623749455.5,286047001.6,N
1623749475.4,286047004.0,N
1623749495.2,286047003.9,N
1623749515.0,286047001.8,N
1623749515.9,286047001.8,N
1623749535.8,286047002.4,N
1623749585.7,286047002.2,E
1623749595.6,286046999.9,N
1623749615.4,286046998.5,P
1623749635.2,286047001.0,N
1623749655.1,286047000.0,N
1623749656.0,286047000.0,N
1623749675.8,286046999.7,N
1623749695.7,286047000.2,N
1623749715.5,286047002.4,Y
1623749735.3,286047002.0,P
1623749755.2,286047001.5,N
1623749775.0,286047002.2,N
1623749775.9,286047002.2,N
1623749795.8,286047002.6,N
1623749815.6,286047002.0,N
1623749835.4,286047002.6,Y
1623749855.3,286046998.9,P
1623749875.1,286047001.2,N
1623749895.9,286046998.8,N
1623749915.7,286046999.1,N
1623749935.5,286046998.5,N
1623749955.4,286046998.9,N
1623749975.2,286046999.1,N
1623749995.0,286046999.1,N
1623749995.9,286046999.1,N
1623750015.8,286046999.3,N
1623750035.6,286046998.2,N
1623750055.5,286046998.2,N
1623750075.3,286046998.8,N
1623750095.1,286047000.3,N
1623750115.9,286047000.4,N
1623750135.7,286047002.3,N
1623750155.5,286047002.8,N
1623750175.4,286046999.8,N
1623750195.2,286047002.6,N
1623750215.1,286047000.2,N
1623750216.0,286047000.2,N
1623750235.8,286046999.9,N
1623750255.6,286047000.3,N
1623750275.5,286047000.9,N
1623750295.3,286047000.4,N
1623750315.1,286047000.9,N
1623750335.9,286046999.7,N
1623750355.7,286046999.7,N
1623750375.6,286047000.5,N
1623750395.4,286047002.2,N
1623750415.2,286047002.1,N
1623750435.1,286047000.2,N
1623750436.0,286047000.2,N
1623750455.8,286047002.8,N
1623750475.7,286046999.8,N
1623750495.5,286047004.4,Y
1623750515.3,286046999.8,P
1623750535.2,286046999.8,N
1623750555.0,286046998.2,P
1623750555.9,286046998.2,N
1623750575.8,286046996.5,Y
1623750595.6,286046998.4,P
1623750615.5,286046999.5,N
1623750635.3,286047000.9,N
1623750655.1,286047000.8,N
1623750675.9,286047000.3,N
1623750695.7,286046999.8,N
1623750715.5,286047002.1,N
1623750735.4,286047002.3,N
1623750755.2,286047001.8,N
1623750775.1,286047002.2,N
1623750776.0,286047002.2,N
1623750795.8,286047003.8,N
1623750815.6,286047003.6,N
1623750835.5,286047003.9,N
1623750855.3,286047001.8,N
1623750875.1,286047002.1,N
1623750895.9,286047002.0,N
1623750915.7,286047002.2,N
1623750935.6,286047001.5,N
1623750955.4,286046999.9,N
1623750975.2,286047000.1,N
1623750995.1,286047000.0,N
1623750996.0,286047000.0,N
1623751015.8,286047000.7,N
1623751035.7,286047001.0,N
1623751055.5,286047000.1,N
1623751075.3,286047000.8,N
1623751095.2,286047000.2,N
1623751115.0,286047002.4,N
1623751115.9,286047002.4,N
1623751135.7,286047002.6,N
1623751155.6,286047002.3,N
1623751175.4,286047001.4,N
1623751195.3,286047003.9,Y
